This demonstration page uses our WeatherBlox Daily Observations layout. Learn more.

Left ArrowRight Arrow

39.51506, -84.39828

Hourly Observations for April 16, 2020

Temp ( °F °C ) Dew Point ( °F °C ) Humidity (%) Winds ( mph kmh ) Pressure ( in mb ) Visibility ( mi km ) Precip ( " mm )
12:15 am 00:15 Clear 29 -1.7 27 -2.7 93 93 Calm 30.26 1025 10 16.0934 0 0
12:35 am 00:35 Clear 29 -1.4 27 -2.6 92 92 Calm 30.26 1025 10 16.0934 0 0
12:55 am 00:55 Clear 27 -2.9 25 -3.9 93 93 Calm 30.26 1025 10 16.0934 0 0
1:15 am 01:15 Clear 27 -2.8 26 -3.4 96 96 Calm 30.27 1025 10 16.0934 0 0
1:35 am 01:35 Clear 27 -2.7 26 -3.5 94 94 Calm 30.27 1025 10 16.0934 0 0
1:55 am 01:55 Clear 27 -2.9 26 -3.5 96 96 Calm 30.28 1026 10 16.0934 0 0
2:15 am 02:15 Clear 27 -2.9 26 -3.5 96 96 Calm 30.28 1026 10 16.0934 0 0
2:35 am 02:35 Partly Cloudy 26 -3.5 25 -3.9 97 97 Calm 30.29 1026 7 11.26538 0 0
2:55 am 02:55 Partly Cloudy with Mist and Fog 26 -3.2 26 -3.5 98 98 Calm 30.28 1026 7 11.26538 0 0
3:15 am 03:15 Partly Cloudy with Mist and Fog 26 -3.3 26 -3.5 99 99 Calm 30.28 1026 7 11.26538 0 0
3:35 am 03:35 Partly Cloudy 26 -3.4 25 -3.9 96 96 NNW 3 6 30.28 1026 7 11.26538 0 0
3:55 am 03:55 Partly Cloudy with Mist and Fog 26 -3.1 26 -3.5 97 97 NNW 3 6 30.28 1026 7 11.26538 0 0
4:15 am 04:15 Clear 27 -3 25 -3.7 95 95 W 5 7 30.29 1026 10 16.0934 0 0
4:35 am 04:35 Clear 26 -3.5 24 -4.2 95 95 SW 6 9 30.31 1026 7 11.26538 0 0
4:55 am 04:55 Clear 24 -4.4 22 -5.4 93 93 SW 6 9 30.31 1026 10 16.0934 0 0
5:15 am 05:15 Clear 26 -3.3 24 -4.3 93 93 SW 5 7 30.3 1026 10 16.0934 0 0
5:35 am 05:35 Clear 26 -3.1 25 -4.1 93 93 SW 5 7 30.3 1026 10 16.0934 0 0
5:55 am 05:55 undefined 25 -3.7 23 -4.8 92 92 SW 5 7 30.31 1026 N/A 0 0
6:15 am 06:15 Clear 27 -2.9 26 -3.6 95 95 SW 3 6 30.31 1027 7 11.26538 0 0
6:35 am 06:35 Clear 26 -3.5 25 -4 96 96 SSW 3 6 30.32 1027 7 11.26538 0 0
6:55 am 06:55 Clear with Mist and Fog 25 -4.1 24 -4.7 96 96 SSW 3 6 30.34 1027 7 11.26538 0 0
7:15 am 07:15 Sunny 25 -4 22 -5.4 90 90 SW 6 9 30.34 1027 10 16.0934 0 0
7:35 am 07:35 Sunny 27 -2.8 24 -4.3 90 90 SW 5 7 30.34 1028 10 16.0934 0 0
7:55 am 07:55 Sunny 27 -3 25 -4 93 93 SSW 6 9 30.34 1028 10 16.0934 0 0
8:15 am 08:15 Sunny 29 -1.5 26 -3.2 88 88 SW 5 7 30.35 1028 10 16.0934 0 0
8:35 am 08:35 Sunny 31 -0.6 27 -3 84 84 SSW 7 11 30.36 1028 10 16.0934 0 0
8:55 am 08:55 Sunny 33 0.5 26 -3.3 76 76 SW 7 11 30.36 1028 10 16.0934 0 0
9:15 am 09:15 Sunny 36 2.2 25 -3.7 65 65 WSW 8 13 30.36 1028 10 16.0934 0 0
9:35 am 09:35 Sunny 38 3.1 23 -4.9 56 56 W 7 11 30.36 1028 10 16.0934 0 0
9:55 am 09:55 Sunny 38 3.5 21 -6.2 49 49 WSW 12 19 30.36 1028 10 16.0934 0 0
10:15 am 10:15 Sunny 39 4.1 22 -5.8 49 49 WSW 10 17 30.36 1028 10 16.0934 0 0
10:35 am 10:35 Sunny 41 4.8 20 -6.5 44 44 W 13 20 30.36 1028 10 16.0934 0 0
10:55 am 10:55 Sunny 41 5.2 19 -7.2 41 41 WSW 12 19 30.36 1028 N/A 0 0
11:15 am 11:15 Sunny 43 6.1 21 -6.2 41 41 W 13 20 30.37 1028 N/A 0 0
11:35 am 11:35 Sunny 44 6.5 21 -5.9 41 41 W 8 13 30.37 1028 N/A 0 0
11:55 am 11:55 Sunny 44 6.6 21 -6.1 40 40 WNW 12 19 30.37 1028 N/A 0 0
12:15 pm 12:15 Sunny 44 6.7 20 -6.5 39 39 WSW 10 17 30.37 1028 N/A 0 0
12:35 pm 12:35 Sunny 45 7.4 22 -5.6 40 40 W 12 19 30.37 1028 N/A 0 0
12:55 pm 12:55 Sunny 46 8 22 -5.5 38 38 W 14 22 30.35 1028 N/A 0 0
1:15 pm 13:15 Sunny 46 7.9 22 -5.7 38 38 W 15 24 30.35 1028 N/A 0 0
1:35 pm 13:35 Partly Cloudy 47 8.2 22 -5.5 38 38 W 14 22 30.35 1028 N/A 0 0
1:55 pm 13:55 Partly Cloudy 48 8.7 23 -5.1 38 38 W 13 20 30.34 1028 N/A 0 0
2:15 pm 14:15 Partly Cloudy 49 9.5 23 -4.9 36 36 WNW 13 20 30.34 1027 N/A 0 0
2:35 pm 14:35 Partly Cloudy 49 9.2 23 -4.8 37 37 WNW 16 26 30.33 1027 N/A 0 0
2:55 pm 14:55 Cloudy 47 8.2 22 -5.7 37 37 WNW 15 24 30.33 1027 N/A 0 0
3:15 pm 15:15 Mostly Cloudy 48 8.9 23 -5.2 37 37 W 14 22 30.33 1027 N/A 0 0
3:35 pm 15:35 Mostly Cloudy 48 9 23 -5.2 37 37 W 14 22 30.32 1027 N/A 0 0
3:55 pm 15:55 Mostly Cloudy 48 9.1 23 -5.2 36 36 WNW 8 13 30.31 1026 N/A 0 0
4:15 pm 16:15 Partly Cloudy 48 8.8 23 -5.1 37 37 WSW 8 13 30.3 1026 N/A 0 0
4:35 pm 16:35 Mostly Cloudy 49 9.3 24 -4.7 37 37 W 13 20 30.3 1026 N/A 0 0
4:55 pm 16:55 Cloudy 50 10.2 23 -4.8 35 35 W 17 28 30.29 1026 N/A 0 0
5:15 pm 17:15 undefined 50 10.1 23 -5.1 34 34 WNW 9 15 30.28 1025 N/A 0 0
5:35 pm 17:35 Sunny 50 9.8 23 -4.8 36 36 WSW 13 20 30.28 1025 N/A 0 0
5:55 pm 17:55 Sunny 49 9.5 23 -5.1 36 36 NW 7 11 30.26 1025 N/A 0 0
6:15 pm 18:15 Sunny 49 9.4 22 -5.5 35 35 W 14 22 30.27 1025 N/A 0 0
6:35 pm 18:35 Sunny 48 9 23 -5.1 37 37 WSW 13 20 30.28 1025 N/A 0 0
6:55 pm 18:55 Sunny 48 8.7 23 -5 38 38 W 12 19 30.27 1025 N/A 0 0
7:15 pm 19:15 Sunny 47 8.3 24 -4.3 41 41 WSW 10 17 30.27 1025 N/A 0 0
7:35 pm 19:35 Sunny 46 8 24 -4.5 41 41 W 10 17 30.26 1025 N/A 0 0
7:55 pm 19:55 Sunny 46 7.7 24 -4.4 42 42 W 9 15 30.27 1025 N/A 0 0
8:15 pm 20:15 Sunny 44 6.9 25 -3.7 47 47 W 7 11 30.29 1026 N/A 0 0
8:35 pm 20:35 Clear 45 7 25 -3.7 47 47 W 5 7 30.28 1025 N/A 0 0
8:55 pm 20:55 Clear 43 6.3 27 -2.8 53 53 WNW 5 7 30.29 1026 N/A 0 0
9:15 pm 21:15 Mostly Cloudy 43 6.2 28 -2.3 55 55 WNW 5 7 30.3 1026 N/A 0 0
9:35 pm 21:35 Cloudy 43 6.3 28 -2.4 54 54 WNW 5 7 30.31 1026 N/A 0 0
9:55 pm 21:55 Cloudy 42 5.8 30 -1.2 61 61 W 5 7 30.32 1027 N/A 0 0
10:15 pm 22:15 Cloudy 43 6.1 29 -1.4 59 59 WNW 5 7 30.33 1027 N/A 0 0
10:35 pm 22:35 Cloudy 43 6 29 -1.6 59 59 WNW 3 6 30.33 1027 N/A 0 0
10:55 pm 22:55 Partly Cloudy 42 5.6 30 -0.9 63 63 NW 3 6 30.32 1027 N/A 0 0
11:15 pm 23:15 Clear 43 5.9 28 -2 57 57 Calm 30.33 1027 N/A 0 0
11:35 pm 23:35 Partly Cloudy 43 6.3 27 -3 52 52 Calm 30.33 1027 N/A 0 0
11:55 pm 23:55 Cloudy 41 4.8 31 -0.6 68 68 Calm 30.33 1027 N/A 0 0

Powered by AerisWeather